When you browse on this site, cookies collect data to enhance your experience and personalize the content and advertising you see.
Visit our Privacy Policy to learn more. By continuing to use the site, you agree to this use of cookies and data.
  • en Suisse
  • Liste des pays
  • À 7 jours
  • Température de l'eau
  • Carte météo
  • Widgets météo
  • user-avatar
    Se connecter

    Météo par heure à Mijas

    Ce jour, 23 Septembre, Lundi

    Heure Température Précipitation Vent Pression Humidité
    00:00 +19°C° 0 mm 3 m/s 717 mmHg 51%
    01:00 +19°C° 0 mm 3 m/s 717 mmHg 55%
    02:00 +18°C° 0 mm 3 m/s 717 mmHg 59%
    03:00 +18°C° 0 mm 3 m/s 717 mmHg 63%
    04:00 +17°C° 0 mm 3 m/s 718 mmHg 64%
    05:00 +17°C° 0 mm 3 m/s 718 mmHg 64%
    06:00 +17°C° 0 mm 3 m/s 718 mmHg 64%
    07:00 +19°C° 0 mm 2 m/s 718 mmHg 57%
    08:00 +20°C° 0 mm 2 m/s 719 mmHg 51%
    09:00 +23°C° 0 mm 2 m/s 719 mmHg 44%
    10:00 +25°C° 0 mm 2 m/s 719 mmHg 39%
    11:00 +26°C° 0 mm 2 m/s 719 mmHg 33%
    12:00 +27°C° 0 mm 2 m/s 719 mmHg 28%
    13:00 +28°C° 0 mm 1 m/s 719 mmHg 28%
    14:00 +28°C° 0 mm 1 m/s 719 mmHg 28%
    15:00 +28°C° 0 mm 1 m/s 719 mmHg 28%
    16:00 +27°C° 0 mm 1 m/s 719 mmHg 32%
    17:00 +23°C° 0 mm 0 m/s 718 mmHg 36%
    18:00 +22°C° 0 mm 0 m/s 718 mmHg 41%
    19:00 +22°C° 0 mm 0 m/s 719 mmHg 42%
    20:00 +21°C° 0 mm 0 m/s 719 mmHg 44%
    21:00 +20°C° 0 mm 0 m/s 719 mmHg 46%
    22:00 +20°C° 0 mm 0 m/s 719 mmHg 47%
    23:00 +20°C° 0 mm 0 m/s 719 mmHg 48%

    Demain, 24 Septembre, Mardi

    Heure Température Précipitation Vent Pression Humidité
    00:00 +19°C° 0 mm 0 m/s 719 mmHg 50%
    01:00 +19°C° 0 mm 0 m/s 719 mmHg 49%
    02:00 +19°C° 0 mm 0 m/s 718 mmHg 49%
    03:00 +19°C° 0 mm 0 m/s 718 mmHg 48%
    04:00 +18°C° 0 mm 0 m/s 718 mmHg 47%
    05:00 +18°C° 0 mm 0 m/s 718 mmHg 46%
    06:00 +20°C° 0 mm 1 m/s 718 mmHg 46%
    07:00 +22°C° 0 mm 1 m/s 719 mmHg 41%
    08:00 +24°C° 0 mm 1 m/s 719 mmHg 37%
    09:00 +24°C° 0 mm 0 m/s 719 mmHg 33%
    10:00 +27°C° 0 mm 1 m/s 719 mmHg 30%
    11:00 +28°C° 0 mm 2 m/s 719 mmHg 27%
    12:00 +30°C° 0 mm 2 m/s 719 mmHg 25%
    13:00 +30°C° 0 mm 2 m/s 719 mmHg 25%
    14:00 +30°C° 0 mm 2 m/s 718 mmHg 25%
    15:00 +30°C° 0 mm 2 m/s 718 mmHg 26%
    16:00 +29°C° 0 mm 2 m/s 718 mmHg 29%
    17:00 +28°C° 0 mm 2 m/s 717 mmHg 32%
    18:00 +26°C° 0 mm 2 m/s 717 mmHg 35%
    19:00 +26°C° 0 mm 2 m/s 717 mmHg 34%
    20:00 +25°C° 0 mm 2 m/s 718 mmHg 34%
    21:00 +25°C° 0 mm 2 m/s 718 mmHg 33%
    22:00 +24°C° 0 mm 2 m/s 718 mmHg 33%
    23:00 +24°C° 0 mm 3 m/s 717 mmHg 33%

    Après-demain, 25 Septembre, Mercredi

    Heure Température Précipitation Vent Pression Humidité
    00:00 +24°C° 0 mm 3 m/s 717 mmHg 34%
    01:00 +22°C° 0 mm 3 m/s 717 mmHg 37%
    02:00 +22°C° 0 mm 3 m/s 717 mmHg 40%
    03:00 +21°C° 0 mm 3 m/s 717 mmHg 43%
    04:00 +21°C° 0 mm 3 m/s 717 mmHg 45%
    05:00 +21°C° 0 mm 3 m/s 717 mmHg 47%
    06:00 +20°C° 0 mm 3 m/s 717 mmHg 49%
    07:00 +23°C° 0 mm 2 m/s 717 mmHg 46%
    08:00 +25°C° 0 mm 2 m/s 717 mmHg 43%
    09:00 +27°C° 0 mm 2 m/s 718 mmHg 39%
    10:00 +28°C° 0 mm 3 m/s 718 mmHg 36%
    11:00 +29°C° 0 mm 3 m/s 718 mmHg 33%
    12:00 +32°C° 0 mm 4 m/s 718 mmHg 30%
    13:00 +32°C° 0 mm 4 m/s 717 mmHg 30%
    14:00 +32°C° 0 mm 4 m/s 717 mmHg 30%
    15:00 +33°C° 0 mm 4 m/s 716 mmHg 31%
    16:00 +32°C° 0 mm 4 m/s 716 mmHg 33%
    17:00 +29°C° 0 mm 4 m/s 716 mmHg 36%
    18:00 +28°C° 0 mm 4 m/s 716 mmHg 39%
    19:00 +27°C° 0 mm 3 m/s 716 mmHg 40%
    20:00 +26°C° 0 mm 3 m/s 717 mmHg 41%
    21:00 +25°C° 0 mm 3 m/s 717 mmHg 42%
    22:00 +25°C° 0 mm 2 m/s 717 mmHg 42%
    23:00 +24°C° 0 mm 2 m/s 717 mmHg 42%

    26 Septembre, Jeudi

    Heure Température Précipitation Vent Pression Humidité
    00:00 +24°C° 0 mm 2 m/s 717 mmHg 43%
    01:00 +23°C° 0 mm 2 m/s 717 mmHg 45%
    02:00 +23°C° 0 mm 1 m/s 717 mmHg 47%
    03:00 +23°C° 0 mm 1 m/s 717 mmHg 49%
    04:00 +22°C° 0 mm 1 m/s 717 mmHg 52%
    05:00 +21°C° 0 mm 2 m/s 717 mmHg 54%
    06:00 +20°C° 0 mm 2 m/s 717 mmHg 57%
    07:00 +21°C° 0 mm 2 m/s 717 mmHg 56%
    08:00 +24°C° 0 mm 3 m/s 718 mmHg 54%
    09:00 +25°C° 0 mm 3 m/s 718 mmHg 53%
    10:00 +26°C° 0 mm 3 m/s 718 mmHg 52%
    11:00 +26°C° 0 mm 4 m/s 718 mmHg 52%
    12:00 +27°C° 0 mm 4 m/s 718 mmHg 51%
    13:00 +27°C° 0 mm 4 m/s 718 mmHg 51%
    14:00 +27°C° 0 mm 3 m/s 718 mmHg 50%
    15:00 +27°C° 0 mm 3 m/s 717 mmHg 49%
    16:00 +26°C° 0 mm 3 m/s 717 mmHg 54%
    17:00 +25°C° 0 mm 2 m/s 717 mmHg 59%
    18:00 +24°C° 0 mm 2 m/s 717 mmHg 64%
    19:00 +23°C° 0 mm 1 m/s 717 mmHg 67%
    20:00 +22°C° 0 mm 1 m/s 718 mmHg 71%
    21:00 +22°C° 0 mm 1 m/s 718 mmHg 74%
    22:00 +21°C° 0 mm 1 m/s 718 mmHg 75%
    23:00 +21°C° 0 mm 1 m/s 718 mmHg 77%

    27 Septembre, Vendredi

    Heure Température Précipitation Vent Pression Humidité
    00:00 +21°C° 0 mm 1 m/s 718 mmHg 78%
    01:00 +20°C° 0 mm 1 m/s 718 mmHg 78%
    02:00 +20°C° 0 mm 1 m/s 718 mmHg 78%
    03:00 +20°C° 0 mm 1 m/s 717 mmHg 77%
    04:00 +20°C° 0 mm 1 m/s 717 mmHg 75%
    05:00 +20°C° 0 mm 1 m/s 717 mmHg 73%
    06:00 +18°C° 0 mm 0 m/s 718 mmHg 71%
    07:00 +20°C° 0 mm 0 m/s 718 mmHg 63%
    08:00 +23°C° 0 mm 1 m/s 718 mmHg 56%
    09:00 +25°C° 0 mm 1 m/s 719 mmHg 48%
    10:00 +26°C° 0 mm 1 m/s 719 mmHg 44%
    11:00 +27°C° 0 mm 1 m/s 719 mmHg 41%
    12:00 +28°C° 0 mm 2 m/s 718 mmHg 38%
    13:00 +29°C° 0 mm 2 m/s 718 mmHg 38%
    14:00 +29°C° 0 mm 1 m/s 717 mmHg 38%
    15:00 +29°C° 0 mm 1 m/s 717 mmHg 38%
    16:00 +28°C° 0 mm 1 m/s 717 mmHg 42%
    17:00 +26°C° 0 mm 1 m/s 717 mmHg 45%
    18:00 +25°C° 0 mm 1 m/s 717 mmHg 48%
    19:00 +24°C° 0 mm 1 m/s 717 mmHg 48%
    20:00 +24°C° 0 mm 1 m/s 717 mmHg 48%
    21:00 +23°C° 0 mm 1 m/s 718 mmHg 48%
    22:00 +23°C° 0 mm 1 m/s 718 mmHg 48%
    23:00 +22°C° 0 mm 1 m/s 718 mmHg 48%

    28 Septembre, Samedi

    Heure Température Précipitation Vent Pression Humidité
    00:00 +22°C° 0 mm 1 m/s 718 mmHg 48%
    01:00 +22°C° 0 mm 1 m/s 717 mmHg 49%
    02:00 +21°C° 0 mm 1 m/s 717 mmHg 50%
    03:00 +21°C° 0 mm 1 m/s 717 mmHg 50%
    04:00 +21°C° 0 mm 1 m/s 717 mmHg 49%
    05:00 +19°C° 0 mm 0 m/s 717 mmHg 47%
    06:00 +19°C° 0 mm 0 m/s 717 mmHg 46%
    07:00 +20°C° 0 mm 0 m/s 717 mmHg 43%
    08:00 +22°C° 0 mm 0 m/s 718 mmHg 40%
    09:00 +24°C° 0 mm 0 m/s 718 mmHg 37%
    10:00 +27°C° 0 mm 1 m/s 718 mmHg 35%
    11:00 +28°C° 0 mm 1 m/s 718 mmHg 33%
    12:00 +29°C° 0 mm 2 m/s 718 mmHg 32%
    13:00 +29°C° 0 mm 2 m/s 718 mmHg 31%
    14:00 +29°C° 0 mm 2 m/s 717 mmHg 31%
    15:00 +29°C° 0 mm 2 m/s 717 mmHg 30%
    16:00 +28°C° 0 mm 1 m/s 717 mmHg 34%
    17:00 +26°C° 0 mm 1 m/s 716 mmHg 39%
    18:00 +25°C° 0 mm 1 m/s 716 mmHg 43%
    19:00 +22°C° 0 mm 0 m/s 717 mmHg 46%
    20:00 +21°C° 0 mm 0 m/s 717 mmHg 49%
    21:00 +20°C° 0 mm 0 m/s 717 mmHg 53%
    22:00 +22°C° 0 mm 1 m/s 717 mmHg 55%
    23:00 +21°C° 0 mm 1 m/s 717 mmHg 57%
    Voir plus